Showing default

NOAA 5, 9057

Orbit data source: Space-Track

NOAA 5, 9057 is a payload satellite owned by NOAA (US) in SSO that was launched on Thu, 29 Jul 1976 UTC via a DELTA 2310 launch vehicle from the Air Force Western Test Range (AFWTR). Payloads include a variety of satellites, spacecraft, and rockets equipped with specific instruments for various scientific and technological missions. These include communications satellites like Starlink; space stations such as the ISS; scientific satellites like the Hubble; Earth observation satellites from companies like Planet Labs, Umbra, and HawkEye 360; GPS; miniature CubeSats for education and research; and military/defense satellites.

Loading next visibility...
NOAA 5 details
Identifier
9057, 1976-077A
Orbit
SSO
Last TLE update9 hours ago
Origin
Flag of USNOAA (US)
ManufacturerRCA/East Windsor
MissionNon-operational Civil Weather
Bus & MotorTIROS M, Unknown motor
Mass340 kg wet, 340 kg dry
Launch date (UTC)
1976-07-29 (48 years ago)
Launch vehicle
DELTA 2310
Launch site
Air Force Western Test Range (AFWTR)
Object type
Payload
Rocket body
Debris
Shape & HBRHex Poly + 3 Pan, 1.25 m
Radar Cross Section1.292 m², Large (>1 m²)

Expand to show TLE details & history

TLE from 9 hours ago
0 NOAA 5
1 09057U 76077A   24361.21703252 -.00000020  00000-0  19885-3 0  9993
2 09057 102.2365 334.4914 0009556 245.2055 126.3403 12.37810920187916
Epoch: 2024-12-26T05:12Z
Definitive object data (Epoch: 2024-12-26T05:12:31.609Z)
Latitude11.32577°
Longitude158.68269°
Altitude1,522.16 km
Speed7.103 km/s
True Right ascension22h 08m 03s
True Declination11° 15' 58"
Sunlit
Object was in daylight at TLE epoch
Visualization TLE readout
Latitude-55.59071°
Longitude179.91466°
Altitude1,533.242 km
Speed7.101 km/s
Apparent Right ascension00h 46m 44s
Apparent Declination-49° 47' 36"
Sunlit
Object is in daylight
Visualization observer readout
Local Sidereal Time13:53:59
Azimuth135.387° SSE
Elevation-74.583°
Doppler factor1
Orbital elements
Apogee altitude1,521.03 km
Perigee altitude1,505.947 km
Semi-major axis7,891.625 km
Eccentricity0.0009556
Inclination102.2365°
RAAN334.4914°
Arg. of periapsis245.2055°
True anomaly126.42844°
Mean anomaly126.3403°
Eccentric anomaly126.38438°
Mean motion3.09595 °/min
BSTAR0.00019885
Orbital period116.28 mins
Loading maneuver chart data...
Loading historical data...
Loading historical data...
Loading historical data...
Loading historical data...
Loading historical data...
Loading historical data...
Loading historical data...

NOAA 5 Visibility forecast

Observer location: undefined°, undefined

Span
Click to sort rows by Start time (UTC) header in descending order
Start Az.
Max El. time (UTC)
Max El. Az.
Max El.
End time (UTC)
End Az.
14 mins2024-12-26 20:48:07.701Z115.698° SE2024-12-26 20:55:07.701Z59.389° ENE28.789°2024-12-26 21:02:07.701Z0.136° NNE
15 mins2024-12-26 22:42:07.701Z180.26° SSW2024-12-26 22:49:07.701Z262.621° W40.892°2024-12-26 22:57:07.701Z334.683° NNW
15 mins2024-12-27 10:53:07.701Z29.605° NE2024-12-27 11:00:07.701Z102.138° ESE39.388°2024-12-27 11:08:07.701Z178.96° S
13 mins2024-12-27 12:48:07.701Z356.077° N2024-12-27 12:54:07.701Z298.35° NW30.395°2024-12-27 13:01:07.701Z241.088° WSW
|